McGhee Tyson Airport Airport (TYS)

Airport Diagram
Current Weather/Forecast (VFR Conditions)
METAR KTYS 230253Z 00000KT 10SM FEW250 27/21 A3000 RMK AO2 SLP145 T02670206 53001
TAF KTYS 222320Z 2300/2324 22003KT P6SM SCT050 SCT250 FM231600 23012G18KT P6SM SCT050 SCT250

All Charts
General
Chart Name Download
AIRPORT DIAGRAM
TAKEOFF MINIMUMS
ALTERNATE MINIMUMS
RADAR MINIMUMS
HOT SPOT

Departures
Chart Name Download
KNOXVILLE SEVEN

Approaches
Chart Name Download
HI-ILS OR LOC RWY 05L
HI-ILS OR LOC RWY 23L
HI-ILS OR LOC RWY 23R
ILS OR LOC RWY 05L
ILS OR LOC RWY 23L
ILS OR LOC RWY 23R
ILS RWY 23R (SA CAT I)
ILS RWY 23R (CAT II)
RNAV (GPS) RWY 05L
RNAV (GPS) RWY 05R
RNAV (GPS) RWY 23L
RNAV (GPS) RWY 23R
VOR RWY 23L
VOR RWY 23R
HI-VOR OR TACAN RWY 05L
HI-VOR OR TACAN RWY 23R


Inbound Traffic (Arrivals)

No inbound traffic.


Outbound Traffic (Departures)

No outbound traffic.